Location: Lewisville
(33.0462°N, 96.9942°W)
Time: 08:12:57
(UTC-05:00)

Tiangong - Pass Details

Date: 25 September 2021
Orbit: 381 x 390 km, 41.5° (Epoch: 22 October)

Event Time Altitude Azimuth Distance (km) Brightness Sun altitude
Exits shadow 04:51:17 - 103° (ESE) 1,660 4.9 -31.0°
Enters shadow 05:47:12 -70° 243° (WSW) 12,326 8.7 -19.8°
Maximum altitude 06:24:55 85° 151° (SSE) 382 1.0 -12.0°
